Fecha, hora, temperatura, viento dirección y velocidad, humedad y presión.

  • 11-04-2019 20:00:00 | 4.40°C | Noroeste |35.00 km/h | 45.00% | 768.50 hPa
  • 11-04-2019 19:00:00 | 6.50°C | Norte |33.00 km/h | 34.00% | 768.30 hPa
  • 11-04-2019 18:00:00 | 7.70°C | Noroeste |26.00 km/h | 30.00% | 768.50 hPa
  • 11-04-2019 17:00:00 | 8.20°C | Norte |22.00 km/h | 22.00% | 768.70 hPa
  • 11-04-2019 16:00:00 | 9.20°C | Norte |21.00 km/h | 35.00% | 768.90 hPa
  • 11-04-2019 15:00:00 | 8.60°C | Norte |19.00 km/h | 29.00% | 769.40 hPa
  • 11-04-2019 14:00:00 | 9.40°C | Norte |22.00 km/h | 25.00% | 769.50 hPa
  • 11-04-2019 13:00:00 | 8.50°C | Norte |19.00 km/h | 31.00% | 769.90 hPa
  • 11-04-2019 12:00:00 | 8.50°C | Norte |18.00 km/h | 25.00% | 770.10 hPa
  • 11-04-2019 11:00:00 | 7.10°C | Norte |16.00 km/h | 20.00% | 770.00 hPa
  • 11-04-2019 10:00:00 | 5.30°C | Norte |23.00 km/h | 15.00% | 769.70 hPa
  • 11-04-2019 09:00:00 | 3.70°C | Norte |29.00 km/h | 10.00% | 769.20 hPa
  • 11-04-2019 08:00:00 | 2.60°C | Norte |27.00 km/h | 11.00% | 768.70 hPa
  • 11-04-2019 07:00:00 | 2.60°C | Norte |24.00 km/h | 17.00% | 768.40 hPa
  • 11-04-2019 06:00:00 | 2.20°C | Norte |20.00 km/h | 13.00% | 768.20 hPa
  • 11-04-2019 05:00:00 | 2.90°C | Norte |25.00 km/h | 10.00% | 768.30 hPa
  • 11-04-2019 04:00:00 | 2.90°C | Norte |21.00 km/h | 11.00% | 768.50 hPa
  • 11-04-2019 03:00:00 | 3.10°C | Norte |22.00 km/h | 10.00% | 769.00 hPa
  • 11-04-2019 02:00:00 | 3.00°C | Nordeste |21.00 km/h | 10.00% | 769.10 hPa
  • 11-04-2019 01:00:00 | 3.20°C | Nordeste |21.00 km/h | 15.00% | 769.60 hPa
  • 11-04-2019 00:00:00 | 4.30°C | Nordeste |15.00 km/h | 31.00% | 769.70 hPa
  • 10-04-2019 23:00:00 | 4.50°C | Nordeste |13.00 km/h | 21.00% | 770.00 hPa
  • 10-04-2019 22:00:00 | 3.50°C | Nordeste |18.00 km/h | 12.00% | 769.70 hPa
  • 10-04-2019 21:00:00 | 3.40°C | Norte |17.00 km/h | 16.00% | 769.20 hPa
    • diseño web asturias Información sobre el estado de las mareas, altura de la marejada, temperatura del agua y otros datos de Gijón en Asturias.

      Surf Gijón